sat.trackr.live / text

‹ back to catalog

ONEWEB-0168

NORAD 48068 · 2021-025AC

PAYLOAD ACTIVE UNKNOWN

§ Identity

Operator
Country
UK
Launch date
2021-03-25
Launch site
VOSTO
Launch vehicle
Mass (kg)
RCS (m²)

Purposes: comms

External: N2YO · Heavens-Above · Gunter

§ Orbital elements

Epoch: 2026-09-14T21:05:51.515808Z

Period
109.63 min
Inclination
87.8926°
Eccentricity
0.0001888
Mean motion
13.13469495 rev/d
Perigee alt
1,208.3 km
Apogee alt
1,211.2 km
Semi-major
7,587.9 km
B*
8.0868e-4
RAAN
302.3814°
Arg perigee
94.1284°
Mean anomaly
266.0061°
Rev number
26,533

§ Raw data

ONEWEB-01681 48068U 21025AC  26257.87906847  .00000308  00000+0  80868-3 0  99902 48068  87.8926 302.3814 0001888  94.1284 266.0061 13.13469495265337

JSON: /api/v1/satellites/48068 · /tle

For live sub-satellite position, see the globe view (requires WebGL).

§ Visibility from observer

Set your observer location to see the next 7 days of passes ≥ 10°. The values pass through the URL so the page stays shareable.

No JS? Fill the form by hand. The geolocation button needs JavaScript.